Location: ????????
(35.8740°N, 23.3030°E)
Time: 02:38:38
(UTC+00:00)

Daily predictions for brighter satellites

Satellite Brightness Start Highest point End
(mag) Time Altitude Azimuth Time Altitude Azimuth Time Altitude Azimuth
SL-16 R/B 4.4 01:59:30 10° SSE 02:01:08 19° SSE 02:01:08 19° SSE
Cosmos 2237 Rocket 3.8 02:09:34 26° NNE 02:09:34 26° NNE 02:12:00 10° NNE
Cosmos 2278 Rocket 3.3 02:09:00 39° ENE 02:09:00 39° ENE 02:14:01 10° SE
Cosmos 1943 Rocket 3.0 02:17:58 47° E 02:17:58 47° E 02:22:42 10° SE
USA 267 3.5 02:22:57 10° NE 02:28:25 56° N 02:28:25 56° N
Meteor 2-21 Rocket 4.4 02:31:53 79° NE 02:31:53 79° NE 02:37:41 10° N
Cosmos 2173 Rocket 4.0 02:37:13 63° S 02:37:13 63° S 02:42:15 10° S
ATLAS 3B R/B 4.2 02:31:56 10° S 02:38:30 38° ESE 02:45:28 10° NE
Cosmos 1802 Rocket 4.1 02:37:11 10° N 02:43:31 76° E 02:49:42 10° S
Cosmos 407 Rocket 3.5 02:50:03 64° NNE 02:50:46 76° ENE 02:55:52 10° SSE
H-2A R/B 4.0 02:51:56 13° SE 02:51:56 13° SE 02:52:48 10° ESE
Cosmos 2123 Rocket 3.9 02:56:42 60° W 02:56:50 60° W 03:02:57 10° N
Cosmos 2292 Rocket 3.7 02:58:11 76° SW 02:58:31 82° W 03:04:15 10° N
Cosmos 1371 Rocket 4.4 02:54:08 10° S 02:59:18 63° ESE 03:04:34 10° NNE
USA 234 4.3 02:56:33 10° E 03:02:28 38° NE 03:06:57 17° NNW
Chandra Rocket (1) 3.4 03:04:23 35° SSW 03:05:55 43° S 03:17:39 10° ESE
UNK 4.4 03:04:28 10° S 03:07:32 39° SSW 03:07:32 39° SSW
SL-16 R/B 2.7 03:03:24 10° S 03:08:57 59° ESE 03:14:33 10° NNE
Cosmos 2016 Rocket 3.9 03:03:29 10° N 03:09:52 80° W 03:16:08 10° S
Iridium 4 Rocket 2.7 03:13:59 37° N 03:15:32 79° W 03:19:40 10° S
Cosmos 1932 4.5 03:16:08 22° NNW 03:20:41 86° WSW 03:27:11 10° SSE
Meteor 2-5 Rocket 4.5 03:23:31 32° NW 03:23:31 32° NW 03:27:44 10° N
Cosmos 1869 3.9 03:26:08 10° N 03:29:31 47° E 03:32:53 10° SSE
SKYMED 2 4.3 03:27:31 10° SSE 03:31:44 55° ENE 03:35:59 10° N
Cosmos 1624 Rocket 3.9 03:28:30 10° SSW 03:33:35 60° WNW 03:38:42 10° N
Cosmos 2251 Rocket 3.4 03:29:44 11° NNW 03:34:58 78° WSW 03:40:18 10° S
Helios 1A Rocket 3.6 03:32:22 10° SSE 03:35:35 43° ENE 03:38:48 10° N
CZ-4 R/B 3.7 03:32:10 10° N 03:37:00 81° WNW 03:41:42 10° SSW
Cosmos 371 Rocket 3.9 03:35:22 10° N 03:40:08 58° ENE 03:44:53 10° SSE
Aureole 3 Rocket 4.4 03:40:08 10° N 03:45:40 71° E 03:53:22 10° SSE
SJ 16-02 1.3 03:43:24 10° NNW 03:47:43 82° ENE 03:51:57 10° SSE
COSMO-SKYMED 1 2.9 03:46:42 10° SSE 03:50:45 62° ENE 03:54:49 10° N
Cosmos 2237 Rocket 3.7 03:51:26 17° NW 03:51:26 17° NW 03:54:27 10° NNW
Cosmos 304 Rocket 3.8 03:46:41 10° NNW 03:51:28 80° ENE 03:56:13 10° SSE
Cosmos 2278 Rocket 3.2 03:50:55 21° WNW 03:52:32 24° WSW 03:56:58 10° SSW
Cosmos 1674 Rocket 4.1 03:50:42 10° S 03:55:02 62° E 03:59:25 10° NNE
Cosmos 2061 Rocket 4.1 03:51:07 10° NNW 03:57:03 50° W 04:02:58 10° SSW
Cosmos 1782 Rocket 4.5 03:56:24 16° NW 03:58:58 26° W 04:02:35 10° SSW
CZ-3 R/B 2.8 03:44:52 10° WSW 03:59:24 50° S 04:04:36 10° ESE
Cosmos 1943 Rocket 3.4 03:59:33 18° W 04:00:39 19° W 04:04:20 10° SW
Cosmos 1943 4.0 03:55:41 10° S 04:01:08 55° ESE 04:06:36 10° NNE
RUBIN 8/PSLV 4.5 04:00:07 10° N 04:04:29 72° WNW 04:08:49 10° SSW
Cosmos 2369 Rocket 3.2 04:00:18 10° N 04:05:47 48° ENE 04:11:16 10° SE
Cosmos 1331 Rocket 4.0 04:00:37 10° SSW 04:05:52 90° ESE 04:11:08 10° NNE
USA 229 DEB 3.5 04:01:25 10° SW 04:07:04 56° NW 04:13:21 10° NNE
USA 229 3.4 04:01:38 10° SW 04:07:16 56° NW 04:13:33 10° NNE
Cosmos 2151 Rocket 4.1 04:08:49 10° N 04:13:16 65° E 04:17:40 10° SSE
Meteor 1-21 Rocket 4.4 04:11:28 10° SSW 04:17:04 51° W 04:22:36 10° N
Cosmos 2242 Rocket 4.4 04:14:57 10° SW 04:18:43 28° WNW 04:22:31 10° NNW
Cosmos 676 Rocket 4.0 04:14:17 10° NNW 04:19:24 60° WSW 04:24:28 10° S
Cosmos 1812 2.4 04:18:23 10° NNW 04:21:06 38° W 04:23:48 10° SSW
BREEZE-M DEB (TANK) 2.7 04:19:54 13° W 04:21:55 33° NNW 04:25:30 10° NE
CBERS-1 4.1 04:17:29 10° NNE 04:22:38 85° ESE 04:27:43 10° SSW
Cosmos 1464 Rocket 4.1 04:17:13 10° N 04:23:22 81° E 04:29:29 10° S
Cosmos 1378 Rocket 3.9 04:19:32 10° SSW 04:23:32 39° W 04:27:33 10° N
ATLAS 3B R/B 3.3 04:22:03 10° WSW 04:29:06 45° NW 04:36:35 10° NNE
CZ-2D R/B 4.5 04:29:27 10° NNE 04:32:26 38° E 04:35:24 10° S
Okean 1 Rocket 3.4 04:30:02 10° N 04:34:21 70° E 04:38:37 10° SSE
CENTAUR R/B 3.7 04:31:19 10° NNW 04:40:02 73° ENE 04:49:31 10° SE
